This demonstration page uses our WeatherBlox Daily Observations layout. Learn more.

Left ArrowRight Arrow

Hourly Observations for June 28, 2022

Temp ( °F °C ) Dew Point ( °F °C ) Humidity (%) Winds ( mph kmh ) Pressure ( in mb ) Visibility ( mi km ) Precip ( " mm )
12:53 am 00:53 Clear 59 15 44 6.7 58 58 NNW 6 9 30.24 1024 10 16 0.00 0.00
1:53 am 01:53 Clear 57 13.9 45 7.2 64 64 NNW 5 7 30.23 1024 10 16 0.00 0.00
2:53 am 02:53 Clear 53 11.7 48 8.9 83 83 Calm 30.24 1024 10 16 0.00 0.00
3:53 am 03:53 Clear 51 10.6 47 8.3 86 86 Calm 30.24 1024 10 16 0.00 0.00
4:53 am 04:53 Clear 48 8.9 44 6.7 86 86 Calm 30.24 1024 10 16 0.00 0.00
5:53 am 05:53 Clear 47 8.3 45 7.2 93 93 Calm 30.25 1024 10 16 0.00 0.00
6:53 am 06:53 Sunny 49 9.4 47 8.3 93 93 Calm 30.25 1025 10 16 0.00 0.00
7:53 am 07:53 Sunny 57 13.9 49 9.4 74 74 Calm 30.27 1025 10 16 0.00 0.00
8:53 am 08:53 Sunny 61 16.1 50 10 67 67 Calm 30.28 1025 10 16 0.00 0.00
9:53 am 09:53 Sunny 68 20 48 8.9 49 49 Calm 30.28 1025 10 16 0.00 0.00
10:53 am 10:53 Sunny 71 21.7 49 9.4 46 46 Calm 30.28 1025 10 16 0.00 0.00
11:53 am 11:53 Sunny 73 22.8 46 7.8 38 38 SSW 3 6 30.28 1025 10 16 0.00 0.00
12:53 pm 12:53 Sunny 74 23.3 45 7.2 36 36 Calm 30.27 1025 10 16 0.00 0.00
1:53 pm 13:53 Sunny 77 25 45 7.2 32 32 VRB 3 6 30.26 1025 10 16 0.00 0.00
2:53 pm 14:53 Sunny 77 25 46 7.8 33 33 VRB 5 7 30.24 1024 10 16 0.00 0.00
3:53 pm 15:53 Sunny 78 25.6 46 7.8 32 32 VRB 3 6 30.23 1024 10 16 0.00 0.00
4:53 pm 16:53 Sunny 79 26.1 46 7.8 31 31 Calm 30.22 1023 10 16 0.00 0.00
5:53 pm 17:53 Sunny 79 26.1 47 8.3 32 32 Calm 30.20 1023 10 16 0.00 0.00
6:53 pm 18:53 Sunny 76 24.4 53 11.7 45 45 Calm 30.19 1022 10 16 0.00 0.00
7:53 pm 19:53 Sunny 72 22.2 56 13.3 57 57 Calm 30.19 1022 10 16 0.00 0.00
8:53 pm 20:53 Sunny 67 19.4 52 11.1 59 59 Calm 30.19 1022 10 16 0.00 0.00
9:53 pm 21:53 Clear 61 16.1 53 11.7 75 75 Calm 30.18 1022 10 16 0.00 0.00
10:53 pm 22:53 Clear 58 14.4 52 11.1 81 81 Calm 30.20 1023 10 16 0.00 0.00
11:53 pm 23:53 Clear 57 13.9 52 11.1 83 83 Calm 30.21 1023 10 16 0.00 0.00

Powered by AerisWeather